When you browse on this site, cookies collect data to enhance your experience and personalize the content and advertising you see.
Visit our Privacy Policy to learn more. By continuing to use the site, you agree to this use of cookies and data.
  • In Czech Republic
  • List of Countries
  • For 7 days
  • Water Temperature
  • Satellite Maps
  • Weather Map
  • Weather Widgets
  • user-avatar
    Login

    Hourly Weather Glewice

    Today, 19 February, Tuesday

    Time Temperature Precipitation Wind Pressure Humidity
    00:00 +4°C° 0 mm 3 mps 757 mmHg 86%
    01:00 +4°C° 0 mm 3 mps 757 mmHg 87%
    02:00 +4°C° 0 mm 3 mps 756 mmHg 88%
    03:00 +3°C° 0 mm 3 mps 756 mmHg 88%
    04:00 +3°C° 0 mm 3 mps 756 mmHg 89%
    05:00 +3°C° 0 mm 3 mps 755 mmHg 89%
    06:00 +3°C° 0 mm 4 mps 755 mmHg 89%
    07:00 +3°C° 0 mm 4 mps 755 mmHg 89%
    08:00 +4°C° 0 mm 4 mps 755 mmHg 86%
    09:00 +5°C° 0 mm 4 mps 755 mmHg 83%
    10:00 +6°C° 0 mm 5 mps 755 mmHg 81%
    11:00 +6°C° 0.3 mm 5 mps 755 mmHg 82%
    12:00 +6°C° 0.3 mm 5 mps 755 mmHg 83%
    13:00 +6°C° 0.3 mm 5 mps 755 mmHg 84%
    14:00 +6°C° 0 mm 5 mps 755 mmHg 81%
    15:00 +6°C° 0 mm 5 mps 755 mmHg 77%
    16:00 +5°C° 0 mm 6 mps 755 mmHg 74%
    17:00 +6°C° 0.1 mm 5 mps 755 mmHg 75%
    18:00 +6°C° 0.1 mm 5 mps 756 mmHg 77%
    19:00 +6°C° 0.1 mm 5 mps 756 mmHg 78%
    20:00 +5°C° 0.1 mm 5 mps 756 mmHg 80%
    21:00 +5°C° 0.1 mm 5 mps 756 mmHg 82%
    22:00 +3°C° 0.1 mm 5 mps 756 mmHg 84%
    23:00 +3°C° 0 mm 5 mps 756 mmHg 84%

    Tomorrow, 20 February, Wednesday

    Time Temperature Precipitation Wind Pressure Humidity
    00:00 +3°C° 0 mm 5 mps 756 mmHg 84%
    01:00 +3°C° 0 mm 5 mps 757 mmHg 84%
    02:00 +3°C° 0 mm 6 mps 757 mmHg 84%
    03:00 +3°C° 0 mm 6 mps 757 mmHg 83%
    04:00 +3°C° 0 mm 6 mps 757 mmHg 83%
    05:00 +3°C° 0.1 mm 6 mps 757 mmHg 83%
    06:00 +3°C° 0.1 mm 6 mps 758 mmHg 82%
    07:00 +3°C° 0.1 mm 5 mps 758 mmHg 82%
    08:00 +3°C° 0.1 mm 6 mps 758 mmHg 81%
    09:00 +4°C° 0.1 mm 6 mps 759 mmHg 79%
    10:00 +4°C° 0.1 mm 6 mps 759 mmHg 78%
    11:00 +4°C° 0 mm 6 mps 760 mmHg 76%
    12:00 +5°C° 0 mm 6 mps 760 mmHg 75%
    13:00 +5°C° 0 mm 6 mps 761 mmHg 73%
    14:00 +6°C° 0 mm 5 mps 761 mmHg 73%
    15:00 +6°C° 0 mm 4 mps 761 mmHg 74%
    16:00 +7°C° 0 mm 3 mps 761 mmHg 74%
    17:00 +7°C° 0 mm 3 mps 761 mmHg 78%
    18:00 +7°C° 0 mm 3 mps 761 mmHg 82%
    19:00 +6°C° 0 mm 2 mps 762 mmHg 86%
    20:00 +6°C° 0.1 mm 2 mps 762 mmHg 87%
    21:00 +5°C° 0.1 mm 3 mps 762 mmHg 88%
    22:00 +5°C° 0.1 mm 3 mps 762 mmHg 89%
    23:00 +5°C° 0.3 mm 3 mps 762 mmHg 88%

    Day after tomorrow, 21 February, Thursday

    Time Temperature Precipitation Wind Pressure Humidity
    00:00 +5°C° 0.3 mm 4 mps 761 mmHg 88%
    01:00 +5°C° 0.3 mm 4 mps 761 mmHg 88%
    02:00 +5°C° 0.8 mm 4 mps 761 mmHg 89%
    03:00 +5°C° 0.8 mm 4 mps 761 mmHg 90%
    04:00 +5°C° 0.8 mm 5 mps 761 mmHg 92%
    05:00 +5°C° 0.6 mm 5 mps 760 mmHg 91%
    06:00 +5°C° 0.6 mm 5 mps 760 mmHg 91%
    07:00 +5°C° 0.6 mm 5 mps 760 mmHg 91%
    08:00 +5°C° 1.6 mm 5 mps 760 mmHg 91%
    09:00 +5°C° 1.6 mm 5 mps 760 mmHg 92%
    10:00 +5°C° 1.6 mm 5 mps 760 mmHg 92%
    11:00 +6°C° 0.6 mm 5 mps 760 mmHg 92%
    12:00 +6°C° 0.6 mm 5 mps 761 mmHg 91%
    13:00 +6°C° 0.6 mm 5 mps 761 mmHg 91%
    14:00 +6°C° 0.4 mm 5 mps 761 mmHg 90%
    15:00 +7°C° 0.4 mm 5 mps 761 mmHg 89%
    16:00 +7°C° 0.4 mm 6 mps 761 mmHg 88%
    17:00 +6°C° 0.1 mm 5 mps 762 mmHg 89%
    18:00 +6°C° 0.1 mm 5 mps 762 mmHg 89%
    19:00 +6°C° 0.1 mm 5 mps 763 mmHg 90%
    20:00 +6°C° 0.1 mm 5 mps 763 mmHg 90%
    21:00 +6°C° 0.1 mm 5 mps 764 mmHg 90%
    22:00 +6°C° 0.1 mm 5 mps 764 mmHg 89%
    23:00 +5°C° 0.1 mm 5 mps 765 mmHg 90%

    22 February, Friday

    Time Temperature Precipitation Wind Pressure Humidity
    00:00 +5°C° 0.1 mm 5 mps 766 mmHg 90%
    01:00 +5°C° 0.1 mm 5 mps 767 mmHg 90%
    02:00 +4°C° 0 mm 4 mps 767 mmHg 89%
    03:00 +3°C° 0 mm 4 mps 768 mmHg 87%
    04:00 +1°C° 0 mm 4 mps 769 mmHg 85%
    05:00 0°C° 0 mm 4 mps 770 mmHg 84%
    06:00 0°C° 0 mm 4 mps 771 mmHg 84%
    07:00 -1°C° 0 mm 4 mps 772 mmHg 83%
    08:00 0°C° 0 mm 4 mps 773 mmHg 78%
    09:00 0°C° 0 mm 4 mps 774 mmHg 73%
    10:00 +1°C° 0 mm 4 mps 775 mmHg 68%
    11:00 +2°C° 0 mm 3 mps 775 mmHg 64%
    12:00 +3°C° 0 mm 3 mps 776 mmHg 60%
    13:00 +3°C° 0 mm 3 mps 776 mmHg 56%
    14:00 +3°C° 0 mm 3 mps 776 mmHg 56%
    15:00 +4°C° 0 mm 2 mps 777 mmHg 55%
    16:00 +4°C° 0 mm 2 mps 777 mmHg 55%
    17:00 +3°C° 0 mm 2 mps 777 mmHg 60%
    18:00 +2°C° 0 mm 2 mps 777 mmHg 65%
    19:00 +1°C° 0 mm 2 mps 778 mmHg 70%
    20:00 +1°C° 0 mm 2 mps 778 mmHg 71%
    21:00 -1°C° 0 mm 2 mps 778 mmHg 71%
    22:00 -1°C° 0 mm 2 mps 779 mmHg 72%
    23:00 -1°C° 0 mm 2 mps 778 mmHg 70%

    23 February, Saturday

    Time Temperature Precipitation Wind Pressure Humidity
    00:00 -1°C° 0 mm 2 mps 778 mmHg 68%
    01:00 -2°C° 0 mm 2 mps 778 mmHg 66%
    02:00 -2°C° 0 mm 2 mps 778 mmHg 64%
    03:00 -2°C° 0 mm 2 mps 778 mmHg 62%
    04:00 -2°C° 0 mm 2 mps 778 mmHg 61%
    05:00 -2°C° 0 mm 2 mps 777 mmHg 61%
    06:00 -2°C° 0 mm 2 mps 777 mmHg 61%
    07:00 -2°C° 0 mm 2 mps 777 mmHg 60%
    08:00 -1°C° 0 mm 2 mps 777 mmHg 57%
    09:00 +1°C° 0 mm 2 mps 777 mmHg 53%
    10:00 +2°C° 0 mm 2 mps 777 mmHg 49%
    11:00 +3°C° 0 mm 2 mps 777 mmHg 47%
    12:00 +4°C° 0 mm 2 mps 776 mmHg 45%
    13:00 +5°C° 0 mm 2 mps 776 mmHg 43%
    14:00 +5°C° 0 mm 2 mps 776 mmHg 46%
    15:00 +6°C° 0 mm 2 mps 775 mmHg 50%
    16:00 +7°C° 0 mm 1 mps 775 mmHg 53%
    17:00 +5°C° 0 mm 1 mps 775 mmHg 58%
    18:00 +4°C° 0 mm 1 mps 775 mmHg 63%
    19:00 +3°C° 0 mm 1 mps 775 mmHg 68%
    20:00 +3°C° 0 mm 1 mps 775 mmHg 70%
    21:00 +3°C° 0 mm 1 mps 775 mmHg 73%
    22:00 +3°C° 0 mm 1 mps 775 mmHg 76%
    23:00 +4°C° 0 mm 1 mps 775 mmHg 78%

    24 February, Sunday

    Time Temperature Precipitation Wind Pressure Humidity
    00:00 +4°C° 0 mm 1 mps 775 mmHg 80%
    01:00 +4°C° 0 mm 1 mps 775 mmHg 82%
    02:00 +4°C° 0 mm 1 mps 775 mmHg 84%
    03:00 +3°C° 0 mm 1 mps 775 mmHg 87%
    04:00 +3°C° 0 mm 1 mps 775 mmHg 89%
    05:00 +3°C° 0 mm 1 mps 775 mmHg 90%
    06:00 +3°C° 0 mm 1 mps 775 mmHg 91%
    07:00 +3°C° 0 mm 1 mps 775 mmHg 91%
    08:00 +4°C° 0 mm 1 mps 775 mmHg 87%
    09:00 +5°C° 0 mm 1 mps 775 mmHg 83%
    10:00 +6°C° 0 mm 1 mps 775 mmHg 78%
    11:00 +7°C° 0 mm 1 mps 775 mmHg 76%
    12:00 +7°C° 0 mm 2 mps 775 mmHg 73%
    13:00 +8°C° 0 mm 2 mps 775 mmHg 71%
    14:00 +8°C° 0 mm 2 mps 774 mmHg 71%
    15:00 +9°C° 0 mm 1 mps 774 mmHg 71%
    16:00 +10°C° 0 mm 1 mps 774 mmHg 72%
    17:00 +8°C° 0 mm 1 mps 774 mmHg 76%
    18:00 +7°C° 0 mm 1 mps 774 mmHg 81%
    19:00 +6°C° 0 mm 1 mps 773 mmHg 86%
    20:00 +6°C° 0 mm 1 mps 773 mmHg 87%
    21:00 +5°C° 0 mm 2 mps 773 mmHg 88%
    22:00 +4°C° 0 mm 2 mps 773 mmHg 90%
    23:00 +4°C° 0 mm 2 mps 773 mmHg 90%
    Show more